EW1872 Weather Reports


time (UTC)temp
F
wind
direction
speed
knots
gust
knots
rain 1hr
in
rain 24hr
in
rain mn
in
humidity
%
barometer
mb
20260506084551 0 181 6.1 11.3 0.00 0.00 0.00 1008.7
20260506083047 0 173 9.6 13.9 0.00 0.00 0.00 1008.3
20260506081547 0 158 10.4 13.0 0.00 0.00 0.00 1008.2
20260506073043 0 170 10.4 13.9 0.00 0.00 0.00 1007.9
20260506071541 0 173 7.0 10.4 0.00 0.00 0.00 1008.0
20260506061527 0 123 4.3 8.7 0.00 0.00 0.00 1008.3
20260506044509 0 184 5.2 9.6 0.00 0.00 0.00 1008.7
20260506043001 0 182 2.6 6.1 0.00 0.00 0.00 1009.2
20260506041606 0 155 4.3 6.1 0.00 0.00 0.00 1009.0
20260506040053 0 133 10.4 13.9 0.00 0.00 0.00 1009.1
20260506034553 0 165 7.0 10.4 0.00 0.00 0.00 1009.0
20260506033045 0 189 6.1 8.7 0.00 0.00 0.00 1009.0
20260506031541 0 158 7.0 12.2 0.00 0.00 0.00 1009.1
20260506030036 0 180 7.0 10.4 0.00 0.00 0.00 1009.0
20260506024537 0 186 9.6 13.0 0.00 0.00 0.00 1008.9
20260506023028 0 188 7.8 13.0 0.00 0.00 0.00 1008.9
20260506021524 0 194 5.2 9.6 0.00 0.00 0.00 1008.8
20260506020023 0 169 4.3 8.7 0.00 0.00 0.00 1009.2
20260506014518 0 158 7.8 11.3 0.00 0.00 0.00 1009.0
20260506013024 0 182 7.0 9.6 0.00 0.00 0.00 1009.1
20260506011511 0 190 3.5 5.2 0.00 0.00 0.00 1009.0
20260506010006 0 207 0.0 8.7 0.00 0.00 0.00 1009.1
20260506004501 0 182 5.2 7.8 0.00 0.00 0.00 1009.1
20260506003057 0 329 3.5 7.0 0.00 0.00 0.00 1008.3
20260506001612 0 276 4.3 12.2 0.00 0.00 0.00 1008.7
20260506000049 0 168 0.9 3.5 0.00 0.00 0.00 1008.2
20260505234549 0 212 0.9 2.6 0.00 0.00 0.00 1008.2
20260505233045 0 210 1.7 6.1 0.00 0.00 0.00 1007.7
20260505231541 0 304 0.9 4.3 0.00 0.00 0.00 1007.5
20260505230036 0 294 2.6 7.8 0.00 0.00 0.00 1007.2
20260505224536 0 333 6.1 12.2 0.00 0.00 0.00 1007.0
20260505223031 0 360 7.8 15.6 0.00 0.00 0.00 1006.4
20260505221519 0 288 5.2 10.4 0.00 0.00 0.00 1006.3
20260505220026 0 292 2.6 7.8 0.00 0.00 0.00 1006.1
20260505214514 0 291 1.7 7.0 0.00 0.00 0.00 1005.8
20260505213006 0 302 7.0 9.6 0.00 0.00 0.00 1005.6
20260505211502 0 325 4.3 9.6 0.00 0.00 0.00 1005.2
20260505210106 0 287 3.5 9.6 0.00 0.00 0.00 1004.9
20260505204553 0 316 5.2 11.3 0.00 0.00 0.00 1004.6
20260505203050 0 287 4.3 10.4 0.00 0.00 0.00 1004.4
20260505201550 0 360 6.1 12.2 0.00 0.00 0.00 1003.9
20260505200038 0 78 2.6 7.8 0.00 0.00 0.00 1003.4
20260505194534 0 355 7.0 13.0 0.00 0.00 0.00 1003.0
20260505193042 0 295 7.8 14.8 0.00 0.00 0.00 1002.7
20260505191524 0 350 5.2 13.0 0.00 0.00 0.00 1002.4
20260505190031 0 28 8.7 13.9 0.00 0.00 0.00 1002.1
20260505184518 0 320 7.0 18.2 0.00 0.00 0.00 1001.9
20260505183016 0 360 5.2 13.9 0.00 0.00 0.00 1001.4
20260505181507 0 263 7.8 15.6 0.00 0.00 0.00 1001.1
20260505180001 0 212 7.0 15.6 0.00 0.00 0.00 1000.6
20260505174557 0 300 8.7 19.1 0.00 0.00 0.00 1000.3
20260505173052 0 360 10.4 16.5 0.00 0.00 0.00 1000.1
20260505171548 0 350 6.1 16.5 0.00 0.00 0.00 999.6
20260505170043 0 244 5.2 13.0 0.00 0.00 0.00 999.3
20260505164539 0 260 4.3 16.5 0.00 0.00 0.00 999.1
20260505163033 0 338 7.8 16.5 0.00 0.00 0.00 998.8
20260505161529 0 121 7.8 17.4 0.00 0.00 0.00 998.7
20260505153024 0 225 7.0 14.8 0.00 0.00 0.00 997.7
20260505151510 0 276 7.8 20.0 0.00 0.00 0.00 997.3
20260505124522 -90 169 1.7 9.6 0.00 0.00 0.00 994.7
20260505123021 -90 342 3.5 7.0 0.00 0.00 0.00 994.3
20260505121515 -90 67 3.5 8.7 0.00 0.00 0.00 994.0
20260505120009 -90 157 2.6 7.8 0.00 0.00 0.00 993.7
20260505114503 -90 338 1.7 5.2 0.00 0.00 0.00 993.1
20260505113059 -90 276 3.5 9.6 0.00 0.00 0.00 992.9
20260505111559 -90 141 3.5 10.4 0.00 0.00 0.00 992.7
20260505101539 -90 186 7.8 13.9 0.00 0.00 0.00 991.9
20260505100033 -90 179 8.7 15.6 0.00 0.00 0.00 991.6
20260505094528 -90 178 10.4 15.6 0.00 0.00 0.00 991.4
20260505093021 -90 189 9.6 13.9 0.00 0.00 0.00 991.2
20260505091522 -90 173 9.6 15.6 0.00 0.00 0.00 990.8
20260505090011 -90 192 10.4 17.4 0.00 0.00 0.00 990.7